[[{"header":{"parameterUnit":"m.s-1","parameterCategory":1,"la1":30.2991,"la2":30.254,"lo1":-89.0895,"lo2":-89.0444,"dy":0.0017,"dx":0.0017,"nx":28,"ny":28,"refTime":"2024-07-12T21:00:00:Z","depth":0,"parameterNumber":2,"parameterNumberName":"U-component_of_WINDS"},"data":[0,0,0,0,0,0,0,0,0,0,0,0,0,0,0,0,0,0,0,0,0,0,0,0,0,0,0,0,0,0,0,0,0,0,0,0,0,0,0,0,0,0,0,0,0,0,0,0,0,0,0,0,0,0,0,0,0,0,1.3963,1.3965,0,1.4122,1.4124,1.4126,1.4159,1.4158,1.4157,1.4156,1.4321,1.4327,1.4332,0,0,0,0,0,0,0,0,0,0,0,0,0,1.3691,1.3696,1.3963,1.3965,1.3967,1.4122,1.4124,1.4126,1.416,1.4158,1.4157,1.4155,1.432,1.4326,1.4333,0,0,0,0,0,0,0,0,0,0,0,0,0,1.3826,1.3698,1.3963,1.4002,1.4008,1.4121,1.4124,1.4127,1.416,1.4158,1.4156,1.4155,1.4317,1.4326,1.4334,1.442,0,0,1.4359,1.4363,0,0,0,0,0,0,0,0,1.3818,1.3836,1.3995,1.4,1.4006,1.4119,1.4089,1.4225,1.416,1.4102,1.4156,1.4154,1.4256,1.4269,1.4303,1.4428,1.4435,1.436,1.4365,1.4368,1.4371,0,0,0,0,0,0,0,1.3809,1.3829,1.4026,1.3997,1.4004,1.4013,1.403,1.4115,1.4187,1.4107,1.411,1.4128,1.4258,1.4295,1.4307,1.4438,1.4359,1.4367,1.4372,1.4375,1.4641,1.4643,0,0,0,0,0,0,1.3792,1.3821,1.4021,1.4031,1.3906,1.4019,1.4038,1.4085,1.4186,1.42,1.4129,1.4129,1.4281,1.4297,1.4313,1.442,1.4368,1.4376,1.4381,1.4639,1.4642,1.4644,0,0,0,0,0,0,1.3786,1.381,1.4015,1.3927,1.3954,1.4026,1.4077,1.4089,1.4125,1.4203,1.4216,1.4153,1.4281,1.4301,1.4393,1.4427,1.438,1.4387,1.4637,1.464,1.4643,1.4636,0,0,0,0,0,0,1.3778,1.3807,1.384,1.3927,1.3958,1.4091,1.4079,1.4093,1.4139,1.414,1.4229,1.4242,1.4281,1.438,1.4401,1.4437,1.4394,1.4634,1.4638,1.4642,1.4634,1.4639,1.4643,0,0,0,0,0,1.3768,1.3833,1.3842,1.3866,1.4001,1.4093,1.4111,1.4154,1.4141,1.4175,1.4225,1.4239,1.4419,1.4389,1.4413,1.4452,1.4632,1.4637,1.4641,1.4632,1.4638,1.4643,0,0,0,0,0,0,1.3749,1.3845,1.3856,1.3951,1.4013,1.4099,1.4143,1.4159,1.4228,1.4226,1.4277,1.4297,1.4385,1.4428,1.4393,1.4541,1.4525,1.4535,1.451,1.4516,1.4521,1.4508,1.4401,0,0,0,0,0,1.3756,1.3822,1.3903,1.3978,1.4009,1.407,1.4112,1.414,1.4207,1.4234,1.4291,1.4357,1.4429,1.4475,1.4545,1.464,1.466,1.4678,1.4683,1.4686,1.4694,1.4747,1.4756,1.4659,1.4659,1.4659,0,0,1.3771,1.3831,1.387,1.3976,1.4028,1.4096,1.4093,1.4165,1.4216,1.4246,1.4335,1.4379,1.4456,1.4549,1.4594,1.4588,1.4725,1.4692,1.4695,1.4701,1.4753,1.4762,1.477,1.4663,1.4662,1.4662,0,0,1.3832,1.3884,1.3953,1.4004,1.4083,1.4123,1.4139,1.4222,1.4252,1.4343,1.4366,1.4428,1.455,1.4604,1.4647,1.4728,1.4743,1.4749,1.4774,1.4825,1.4832,1.4839,1.4868,1.4877,1.4757,1.4757,1.4757,0,1.384,1.3943,1.3986,1.4057,1.4103,1.4132,1.4201,1.425,1.4347,1.4379,1.4371,1.4524,1.4578,1.4684,1.4703,1.4738,1.4758,1.4739,1.4827,1.4835,1.4842,1.487,1.488,1.4757,1.4757,1.4757,1.4757,0,1.3949,1.402,1.4066,1.4158,1.4209,1.4279,1.4334,1.438,1.4403,1.4444,1.4536,1.4601,1.4685,1.4712,1.4736,1.4822,1.4816,1.4817,1.4802,1.4851,1.4878,1.4889,1.4758,1.4757,1.4757,1.4757,0,0,1.4004,1.4118,1.4134,1.4176,1.4264,1.4319,1.4391,1.4471,1.451,1.4577,1.4638,1.474,1.4741,1.479,1.482,1.4865,1.4924,1.4861,1.4864,1.487,1.5022,1.502,1.5032,1.4934,1.4937,1.4938,1.5016,0,1.4075,1.4202,1.4243,1.4349,1.4415,1.4443,1.4505,1.4566,1.4607,1.4669,1.4714,1.4785,1.4782,1.4812,1.4857,1.4907,1.4955,1.4902,1.4992,1.4995,1.4972,1.5046,1.5045,1.5114,1.5026,1.5028,1.503,0,1.4176,1.4242,1.4354,1.4433,1.4463,1.4518,1.4594,1.4653,1.4723,1.475,1.4804,1.483,1.4906,1.4886,1.4992,1.4955,1.4994,1.5024,1.5028,1.5038,1.5015,1.5058,1.5138,1.5148,1.5047,1.5045,1.5044,0,1.4203,1.4321,1.4403,1.4438,1.4532,1.457,1.4612,1.468,1.4725,1.4793,1.4823,1.4899,1.494,1.4999,1.5045,1.5026,1.5146,1.5131,1.517,1.5169,1.5194,1.5192,1.5281,1.522,1.522,1.522,1.5219,0,1.4278,1.4346,1.4416,1.4467,1.4544,1.459,1.4665,1.4708,1.4768,1.4828,1.4857,1.4913,1.497,1.5034,1.5071,1.5152,1.5171,1.5195,1.5203,1.5192,1.5189,1.5218,1.5214,1.5222,1.5222,1.5221,1.5221,0,1.4322,1.4372,1.4463,1.4545,1.4567,1.4619,1.469,1.474,1.4781,1.4857,1.4877,1.4942,1.5018,1.507,1.5168,1.5192,1.5281,1.5289,1.5257,1.5261,1.5297,1.5293,1.5409,1.5426,1.5353,1.5354,1.5354,0,1.4366,1.4419,1.4505,1.4547,1.4588,1.4655,1.4701,1.4749,1.4796,1.4879,1.492,1.4998,1.5062,1.5183,1.5239,1.5314,1.5324,1.536,1.5336,1.5322,1.5325,1.5321,1.5326,1.5363,1.5364,1.5364,1.5365,0,1.444,1.4462,1.4527,1.4601,1.4655,1.4716,1.4777,1.4809,1.4868,1.492,1.4997,1.5047,1.5146,1.5223,1.5303,1.5347,1.5366,1.5372,1.5385,1.5373,1.5352,1.5363,1.5266,1.5369,1.5368,1.5368,1.5368,1.5368,1.4485,1.4533,1.4601,1.4673,1.4723,1.4779,1.483,1.4878,1.4943,1.5026,1.5051,1.5131,1.52,1.5309,1.5354,1.5418,1.5415,1.5434,1.5439,1.5443,1.5442,1.5342,1.5433,1.5433,1.5433,1.5433,1.5433,0,1.456,1.4605,1.467,1.4754,1.481,1.4822,1.489,1.4937,1.5007,1.5068,1.5131,1.522,1.5295,1.5357,1.5434,1.5473,1.5484,1.5492,1.5489,1.5499,1.5441,1.5422,1.5482,1.5482,1.5482,1.5482,1.5482,1.5482,1.4605,1.4686,1.4716,1.4822,1.4868,1.4946,1.4983,1.5035,1.5085,1.5182,1.5244,1.5284,1.5346,1.5427,1.5497,1.5513,1.554,1.5546,1.5564,1.5509,1.5503,1.5498,1.548,1.5551,1.5551,1.5617,1.5617,1.5618]},{"header":{"parameterUnit":"m.s-1","parameterCategory":1,"la1":30.2991,"la2":30.254,"lo1":-89.0895,"lo2":-89.0444,"dy":0.0017,"dx":0.0017,"nx":28,"ny":28,"refTime":"2024-07-12T21:00:00:Z","depth":0,"parameterNumber":3,"parameterNumberName":"V-component_of_WINDS"},"data":[0,0,0,0,0,0,0,0,0,0,0,0,0,0,0,0,0,0,0,0,0,0,0,0,0,0,0,0,0,0,0,0,0,0,0,0,0,0,0,0,0,0,0,0,0,0,0,0,0,0,0,0,0,0,0,0,0,0,3.5693,3.5692,0,3.5631,3.5631,3.563,3.5601,3.5601,3.5601,3.5601,3.5532,3.553,3.5529,0,0,0,0,0,0,0,0,0,0,0,0,0,3.578,3.5779,3.5693,3.5692,3.5692,3.5632,3.5631,3.563,3.5601,3.5601,3.5601,3.5601,3.5533,3.5531,3.5528,0,0,0,0,0,0,0,0,0,0,0,0,0,3.5733,3.5779,3.5693,3.567,3.5667,3.5632,3.5631,3.563,3.5601,3.5601,3.5601,3.5601,3.5534,3.5531,3.5528,3.5509,0,0,3.552,3.5518,0,0,0,0,0,0,0,0,3.5736,3.573,3.5674,3.5672,3.5668,3.5624,3.5636,3.5589,3.5601,3.5626,3.5601,3.5601,3.5562,3.5557,3.5545,3.5506,3.5503,3.5519,3.5518,3.5516,3.5516,0,0,0,0,0,0,0,3.5739,3.5732,3.5668,3.5673,3.567,3.5661,3.5654,3.5627,3.5594,3.5624,3.5622,3.5615,3.5561,3.5548,3.5543,3.5502,3.5519,3.5517,3.5515,3.5514,3.5444,3.5443,0,0,0,0,0,0,3.5747,3.5735,3.567,3.5667,3.5703,3.5659,3.5652,3.5638,3.5595,3.5588,3.5615,3.5614,3.5553,3.5547,3.5541,3.5516,3.5516,3.5514,3.5512,3.5444,3.5444,3.5443,0,0,0,0,0,0,3.5749,3.5741,3.5673,3.57,3.5691,3.5658,3.5643,3.5637,3.5624,3.5588,3.5581,3.5608,3.5553,3.5545,3.5518,3.5513,3.5512,3.551,3.5444,3.5444,3.5443,3.5466,0,0,0,0,0,0,3.5751,3.5742,3.5736,3.57,3.569,3.5652,3.5642,3.5636,3.562,3.5618,3.558,3.5574,3.5552,3.5522,3.5515,3.5509,3.5508,3.5444,3.5444,3.5444,3.5465,3.5466,3.5467,0,0,0,0,0,3.5755,3.5743,3.5736,3.5728,3.5681,3.5652,3.5646,3.5623,3.562,3.5612,3.5589,3.5575,3.5515,3.5519,3.5511,3.5505,3.5444,3.5444,3.5444,3.5465,3.5466,3.5467,0,0,0,0,0,0,3.5777,3.5738,3.5729,3.5707,3.5683,3.5647,3.5637,3.5625,3.56,3.5599,3.557,3.5561,3.5537,3.5518,3.5524,3.5484,3.5478,3.5476,3.5497,3.5498,3.5499,3.5504,3.5505,0,0,0,0,0,3.578,3.5761,3.5727,3.571,3.5699,3.5671,3.5657,3.5642,3.5615,3.5604,3.5579,3.5553,3.5528,3.5512,3.5487,3.5462,3.5453,3.5454,3.5455,3.5456,3.5454,3.5439,3.5439,3.5442,3.5442,3.5442,0,0,3.5784,3.5761,3.575,3.5714,3.5694,3.5674,3.5662,3.5641,3.5625,3.56,3.5574,3.5554,3.5523,3.5497,3.5484,3.548,3.5451,3.5455,3.5456,3.5454,3.5439,3.5438,3.5438,3.5442,3.5442,3.5442,0,0,3.5782,3.5763,3.5747,3.5728,3.5698,3.5679,3.5676,3.5642,3.5629,3.5602,3.5583,3.5562,3.552,3.5499,3.5482,3.5473,3.5458,3.5465,3.547,3.5456,3.5456,3.5455,3.5451,3.5451,3.5464,3.5464,3.5464,0,3.5791,3.5762,3.574,3.5721,3.5705,3.5684,3.5666,3.5648,3.5611,3.56,3.5596,3.5544,3.5521,3.5489,3.5487,3.5475,3.5468,3.5469,3.5458,3.5457,3.5456,3.5452,3.5451,3.5465,3.5465,3.5465,3.5464,0,3.5774,3.5754,3.5744,3.5712,3.5695,3.5676,3.565,3.5635,3.5621,3.5602,3.5575,3.5547,3.5516,3.5507,3.5492,3.5474,3.5472,3.5464,3.5457,3.5458,3.5453,3.5452,3.5466,3.5466,3.5466,3.5465,0,0,3.5784,3.5741,3.5737,3.5722,3.5688,3.5671,3.5652,3.5623,3.5611,3.5586,3.5568,3.5533,3.5526,3.5507,3.5489,3.5477,3.5471,3.547,3.5469,3.5471,3.5448,3.5455,3.5454,3.5462,3.5462,3.5461,3.5451,0,3.5777,3.5743,3.5723,3.5696,3.5677,3.5656,3.5639,3.5615,3.5597,3.5576,3.5555,3.5531,3.5523,3.5511,3.5499,3.5475,3.5466,3.5475,3.5443,3.5442,3.5452,3.5451,3.5458,3.545,3.5449,3.5449,3.5449,0,3.5765,3.5743,3.5715,3.5684,3.5675,3.566,3.5632,3.5614,3.5586,3.5573,3.5553,3.5536,3.5513,3.5509,3.5476,3.5482,3.5468,3.5454,3.5453,3.5449,3.5445,3.5447,3.5446,3.5445,3.5446,3.5446,3.5446,0,3.5775,3.5738,3.5717,3.5704,3.5667,3.5657,3.5641,3.5614,3.5598,3.5573,3.5563,3.5535,3.552,3.5498,3.5473,3.5473,3.5442,3.5436,3.543,3.543,3.5424,3.5424,3.5421,3.5415,3.5415,3.5415,3.5415,0,3.577,3.5753,3.5721,3.5708,3.5688,3.5664,3.5645,3.5627,3.5603,3.5585,3.5564,3.5547,3.5516,3.5494,3.5475,3.545,3.5443,3.5431,3.5426,3.5433,3.5434,3.5422,3.5422,3.5415,3.5415,3.5415,3.5415,0,3.5777,3.5755,3.573,3.5698,3.569,3.5677,3.5648,3.5634,3.5615,3.5591,3.5585,3.5554,3.5528,3.5501,3.5465,3.5451,3.5427,3.542,3.5437,3.5434,3.5429,3.543,3.5418,3.5415,3.5412,3.5412,3.5412,0,3.5775,3.5762,3.5729,3.5717,3.5702,3.5681,3.5666,3.5641,3.5626,3.5594,3.5583,3.5555,3.5532,3.5491,3.5464,3.5436,3.5428,3.5426,3.5424,3.5431,3.5428,3.5429,3.5427,3.5427,3.5427,3.5427,3.5427,0,3.5774,3.5764,3.5743,3.5719,3.5702,3.5681,3.5659,3.5649,3.562,3.5603,3.5578,3.556,3.5524,3.5496,3.5466,3.5447,3.5431,3.5428,3.5425,3.5432,3.5442,3.5436,3.5439,3.5428,3.5428,3.5428,3.5428,3.5428,3.5776,3.5764,3.5739,3.5717,3.5698,3.5679,3.5664,3.5644,3.5622,3.5592,3.5579,3.5553,3.5524,3.5482,3.5464,3.5441,3.5437,3.5433,3.5432,3.5431,3.5433,3.5446,3.5436,3.5435,3.5435,3.5435,3.5435,0,3.5773,3.5757,3.5737,3.5708,3.569,3.568,3.5655,3.564,3.5618,3.5595,3.5573,3.5543,3.5516,3.5488,3.5459,3.5447,3.5439,3.544,3.5441,3.5436,3.5438,3.5443,3.5447,3.5447,3.5447,3.5447,3.5447,3.5447,3.577,3.5749,3.5736,3.5705,3.5688,3.5663,3.565,3.5631,3.5613,3.5581,3.5559,3.5542,3.5516,3.5485,3.546,3.5452,3.5442,3.5445,3.5435,3.5437,3.5436,3.5435,3.544,3.5443,3.5443,3.5435,3.5435,3.5435]}]]